Weather History for Columbia, MO

Change the Weather History Date:

Wednesday, December 12, 2012

  Actual Average Record
Temperature  
Mean Temperature 38 °F 33 °F  
Max Temperature 51 °F 42 °F 74 °F (1889)
Min Temperature 24 °F 24 °F -7 °F (1962)
Degree Days  
Heating Degree Days 27 32  
Month to date heating degree days 232 361  
Since 1 July heating degree days 1199 1346  
Cooling Degree Days 0 0  
Month to date cooling degree days 0 0  
Year to date cooling degree days 1896 1249  
Moisture  
Dew Point 18 °F    
Average Humidity 53    
Maximum Humidity 81    
Minimum Humidity 24    
Precipitation  
Precipitation 0.00 in 0.08 in 1.43 in (1923)
Month to date precipitation 0.62 1.07  
Year to date precipitation 29.76 41.25  
Snow  
Snow 0.00 in 0.10 in 4.00 in (1898)
Month to date snowfall 0.0 1.4  
Since 1 July snowfall 0.0 2.3  
Snow Depth 0.00 in    
Sea Level Pressure  
Sea Level Pressure 30.24 in    
Wind  
Wind Speed 9 mph (South)    
Max Wind Speed 18 mph    
Max Gust Speed 22 mph    
Visibility 10 miles    
Events      
T = Trace of Precipitation, MM = Missing Value Source: NWS Daily Summary

Daily Weather History Graph

Daily Weather History Graph

Search for Another Location

Airport:

Trip Planner

Search our weather history database for the weather conditions in past years. The results will help you decide how hot, cold, wet, or windy it might be!

Date:

Astronomy

Dec. 12, 2012 Rise Set
Actual Time 7:18 AM CST 4:47 PM CST
Civil Twilight 6:48 AM CST 5:17 PM CST
Nautical Twilight 6:15 AM CST 5:50 PM CST
Astronomical Twilight 5:42 AM CST 6:23 PM CST
Moon 6:23 AM CST (12/12) 4:24 PM CST (12/12)
Length of Visible Light 10h 28m
Length of Day
9h 29m
Waning Crescent, 1% of the Moon is Illuminated
Dec 12
Waning Crescent
Dec 13
New
Dec 19
First Quarter
Dec 28
Full
Jan 4
Last Quarter

Hourly Weather History & Observations

Time (CST) Temp. Windchill Dew Point Humidity Pressure Visibility Wind Dir Wind Speed Gust Speed Precip Events Conditions
12:54 AM 28.0 °F 21.7 °F 19.0 °F 69% 30.21 in 10.0 mi South 5.8 mph - N/A   Clear
1:54 AM 25.0 °F 17.1 °F 18.0 °F 75% 30.21 in 9.0 mi South 6.9 mph - N/A   Clear
2:54 AM 25.0 °F 18.1 °F 19.0 °F 78% 30.22 in 10.0 mi South 5.8 mph - N/A   Clear
3:54 AM 25.0 °F 17.1 °F 19.0 °F 78% 30.22 in 10.0 mi SSE 6.9 mph - N/A   Clear
4:54 AM 25.0 °F 16.3 °F 18.0 °F 75% 30.23 in 10.0 mi SSE 8.1 mph - N/A   Clear
5:54 AM 24.8 °F 16.1 °F 17.6 °F 74% 30.22 in 10.0 mi SSE 8.1 mph - N/A   Clear
6:54 AM 24.1 °F 15.2 °F 18.0 °F 77% 30.27 in 10.0 mi SSE 8.1 mph - N/A   Clear
7:54 AM 26.1 °F 18.4 °F 19.0 °F 75% 30.27 in 10.0 mi SSE 6.9 mph - N/A   Clear
8:54 AM 30.9 °F 23.5 °F 21.9 °F 69% 30.28 in 10.0 mi South 8.1 mph - N/A   Clear
9:54 AM 36.0 °F 29.0 °F 21.0 °F 55% 30.30 in 10.0 mi South 9.2 mph - N/A   Clear
10:54 AM 42.1 °F 38.4 °F 19.9 °F 41% 30.30 in 10.0 mi South 5.8 mph - N/A   Clear
11:54 AM 46.0 °F 41.0 °F 19.9 °F 35% 30.28 in 10.0 mi South 10.4 mph - N/A   Clear
12:54 PM 48.9 °F - 18.0 °F 29% 30.26 in 10.0 mi South 11.5 mph - N/A   Clear
1:54 PM 50.0 °F - 16.0 °F 26% 30.23 in 10.0 mi South 16.1 mph 21.9 mph N/A   Clear
2:54 PM 51.1 °F - 17.1 °F 26% 30.22 in 10.0 mi South 10.4 mph - N/A   Clear
3:54 PM 50.0 °F - 15.1 °F 25% 30.23 in 10.0 mi South 10.4 mph - N/A   Clear
4:54 PM 41.0 °F 36.4 °F 15.1 °F 35% 30.23 in 10.0 mi South 6.9 mph - N/A   Clear
5:54 PM 39.0 °F 33.4 °F 17.1 °F 41% 30.23 in 10.0 mi SSE 8.1 mph - N/A   Clear
6:54 PM 39.0 °F 32.3 °F 17.1 °F 41% 30.22 in 10.0 mi SSE 10.4 mph - N/A   Clear
7:54 PM 37.9 °F 30.9 °F 17.1 °F 43% 30.23 in 10.0 mi SSE 10.4 mph - N/A   Clear
8:54 PM 39.0 °F 31.8 °F 17.1 °F 41% 30.23 in 10.0 mi SSE 11.5 mph - N/A   Clear
9:54 PM 37.9 °F 29.6 °F 16.0 °F 41% 30.24 in 10.0 mi South 13.8 mph - N/A   Clear
10:54 PM 37.0 °F 29.8 °F 17.1 °F 44% 30.25 in 10.0 mi South 10.4 mph - N/A   Clear
11:54 PM 35.1 °F 26.4 °F 18.0 °F 50% 30.25 in 10.0 mi SSE 12.7 mph - N/A   Clear